User: anonymous
Location: Space Photons Observatory
(33.2428°N, 111.5467°W)
Time: 08:10:14
(UTC-07:00)
Language:

RESURS DK-1 - Orbit

View from above orbital plane
View from above orbital plane
View from above satellite
View from above satellite

Ground track
Ground track

The orbit data is extracted from the following two-line orbital elements,

1 29228U 06021A   14211.52777818  .00000276  00000-0  29260-4 0   850
2 29228 069.9363 254.1260 0004385 192.6564 313.8331 15.00734378450070
Epoch (UTC): 30 July 2014 12:40:00
Eccentricity: 0.0004385
inclination: 69.9363°
perigee height: 561 km
apogee height: 567 km
right ascension of ascending node: 254.1260°
argument of perigee: 192.6564°
revolutions per day: 15.00734378
mean anomaly at epoch: 313.8331°
orbit number at epoch: 45007

The dashed part of the orbit path shows where the satellite is in the earth's shadow,  

DLR